PDT,Max TemperatureF,Mean TemperatureF,Min TemperatureF,Max Dew PointF,MeanDew PointF,Min DewpointF,Max Humidity, Mean Humidity, Min Humidity, Max Sea Level PressureIn, Mean Sea Level PressureIn, Min Sea Level PressureIn, Max VisibilityMiles, Mean VisibilityMiles, Min VisibilityMiles, Max Wind SpeedMPH, Mean Wind SpeedMPH, Max Gust SpeedMPH,PrecipitationIn, CloudCover, Events, WindDirDegrees
2013-10-1,71,61,51,57,53,46,100,72,44,30.04,30.00,29.94,10,6,0,10,3,18,0.00,4,Fog,149
2013-10-2,72,59,45,51,47,44,93,69,44,30.02,29.98,29.95,10,10,9,10,3,14,0.00,1,,104
2013-10-3,77,61,45,46,39,26,92,54,15,30.06,30.00,29.94,10,10,10,15,5,21,0.00,0,,307
2013-10-4,86,65,43,40,33,25,76,44,12,30.09,30.02,29.97,10,10,10,13,4,17,0.00,0,,12
2013-10-5,89,70,51,36,28,13,45,26,6,30.17,30.12,30.09,10,10,10,14,4,17,0.00,0,,332
2013-10-6,88,70,52,34,30,21,45,27,9,30.11,30.06,30.01,10,10,10,14,4,17,0.00,0,,284
2013-10-7,78,63,47,51,38,28,89,53,17,30.01,29.96,29.91,10,10,10,13,4,15,0.00,0,,235
2013-10-8,65,57,48,52,49,45,96,81,65,29.93,29.87,29.76,10,7,0,13,5,25,0.00,5,Fog,112
2013-10-9,64,56,48,50,46,43,89,69,48,29.79,29.71,29.66,10,10,5,14,4,18,0.00,5,,220
2013-10-10,61,54,46,48,46,43,93,77,60,30.04,29.93,29.81,10,8,1,14,3,20,0.00,6,,299
2013-10-11,66,58,49,48,47,46,93,77,60,30.10,30.05,30.01,10,10,6,12,3,16,0.00,5,,175
2013-10-12,63,55,47,49,47,45,100,80,60,30.04,30.00,29.95,10,5,0,10,3,14,0.00,4,Fog,111
2013-10-13,67,58,48,50,48,45,89,69,48,30.07,30.02,29.96,10,10,5,12,3,16,0.00,4,,245
2013-10-14,80,62,44,46,41,35,86,54,22,30.10,30.05,29.98,10,10,10,12,4,,0.00,0,,277
2013-10-15,86,66,45,42,35,28,65,40,14,30.02,29.98,29.93,10,10,10,10,3,14,0.00,0,,301
2013-10-16,84,67,50,37,33,28,54,35,15,30.07,30.04,30.00,10,10,10,13,5,16,0.00,0,,291
2013-10-17,81,65,48,50,37,30,77,47,16,30.08,30.03,29.97,10,10,10,10,3,14,0.00,0,,261
2013-10-18,79,62,45,52,43,33,100,60,19,30.05,30.03,29.99,10,6,0,10,3,20,0.00,2,Fog,223
2013-10-19,77,59,40,50,46,39,100,67,33,30.07,30.05,30.02,10,4,0,12,2,24,0.00,4,Fog,179
2013-10-20,65,55,45,50,48,45,100,78,56,30.05,30.00,29.94,10,3,0,9,2,16,0.00,6,Fog,176
2013-10-21,65,56,47,50,48,46,100,76,52,30.02,29.99,29.95,10,4,0,12,2,,0.00,5,Fog,193
2013-10-22,65,57,48,49,48,46,100,80,60,30.03,30.00,29.97,10,4,0,10,2,20,0.00,6,Fog,207
2013-10-23,62,55,48,50,48,46,100,85,69,30.00,29.97,29.94,10,4,0,10,3,15,0.00,7,Fog,178
2013-10-24,57,51,45,49,48,44,93,83,72,30.13,30.05,29.99,10,7,2,8,2,20,0.00,7,,342
2013-10-25,66,55,43,50,46,41,93,75,56,30.17,30.14,30.09,10,7,0,9,2,15,0.00,3,Fog,245
2013-10-26,72,57,42,52,47,41,96,74,52,30.15,30.09,30.05,10,4,0,10,2,13,0.00,5,Fog,174
2013-10-27,60,54,47,52,48,43,100,83,66,30.06,29.93,29.77,10,6,0,16,4,23,0.01,8,Fog,225
2013-10-28,65,58,51,52,47,41,89,68,46,29.89,29.79,29.72,10,10,7,21,6,26,0.03,6,Rain,238
2013-10-29,62,55,48,56,49,46,93,80,67,30.06,29.97,29.89,10,9,2,10,3,24,0.17,6,Rain,211
2013-10-30,67,55,43,47,45,42,93,69,44,30.15,30.10,30.07,10,10,10,12,3,15,0.01,1,,292
2013-10-31,74,59,43,50,44,41,96,65,33,30.18,30.12,30.06,10,10,10,9,3,,0.00,0,,290